Погода в Совхозе Чаусово

Россия / Калужская область     54°49′42″N   36°54′30″E
темп.,
°C
ветер,
м/с
пор.,
м/с
влажн.,
%
обл.,
%
осадки,
мм/ч
давл.,
гПа
погр.,
м
25 мая, ср
ср2500:00+1с228534 0.0 101440
03:000ссз22925 0.0 101527
06:00+2с238426 0.0 1016150
09:00+7с235716 0.0 10161154
12:00+11сз2345100 0.0 10151646
15:00+12зсз4446100 0.0 10151730
18:00+10з346194 0.0 10151073
21:00+8ю227060 0.0 101439
26 мая, чт
чт2600:00+7юз247996 0.0 101495
03:00+4юз2392100 0.0 101350
06:00+6юз25896 0.0 1011122
09:00+14зюз345798 0.0 1009537
12:00+15юз3576100 0.9 1007378
15:00+15ююз5974100 1.8 1005859
18:00+11ююв41096100 4.3 1001661
21:00+10ссв2299100 7.5 99974
27 мая, пт
пт2700:00+10зсз51198100 3.4 999602
03:00+9з51098100 6.4 1000621
06:00+9з3895100 0.0 1001365
09:00+10з6109197 0.6 1001876
12:00+10з61189100 0.6 1003960
15:00+13з610736 1.1 10031332
18:00+15зюз510646 0.4 10021507
21:00+9юз378391 0.4 1003127
28 мая, сб
сб2800:00+9ююз41085100 0.1 1002291
03:00+9зюз3798100 6.7 1000309
06:00+8юз41195100 2.6 1000542
09:00+11з711795 2.9 10011188
12:00+14зюз8125267 0.0 10022188
15:00+13зюз812636 0.7 10041946
18:00+12зюз713640 0.6 10051610
21:00+9зюз613714 0.6 1007776
29 мая, вс
вс2900:00+7юз513810 0.0 1009488
03:00+6юз513870 0.0 1010434
06:00+7юз4118752 0.0 1011388
09:00+11зюз68724 0.3 10111088
12:00+15зюз795261 0.1 10122121
15:00+15зюз695054 0.1 10132155
18:00+15зюз48580 0.0 10141461
21:00+10юз23785 0.0 101631